CAPE
0 0 0 0 0 0 0 0 0 0 0 3 7 5 6 3 2 3 2 1 2 3 1 1 0 0 0 0 1 0 0 0 1 1 0 1 2 0 1 0 1 0 0 0
0 0 0 0 0 0 0 0 0 0 0 1 9 3 2 4 3 3 4 3 2 2 1 4 4 0 1 1 1 0 0 2 0 0 1 1 0 1 0 1 1 1 0 0
0 0 0 0 0 0 0 0 0 0 0 0 0 1 2 1 4 4 3 3 3 2 3 4 5 1 1 2 0 0 0 0 1 0 0 1 1 0 0 0 0 0 0 0
8 0 0 0 0 0 0 1 0 0 1 1 0 0 0 0 0 1 1 0 3 1 1 4 4 1 0 1 0 1 1 0 0 0 0 1 1 1 2 1 0 0 0 0
0 0 0 0 0 0 0 1 1 0 1 1 0 0 0 2 3 2 0 0 2 0 0 3 3 2 3 1 0 0 1 1 0 2 1 0 2 2 1 1 1 0 0 0
0 0 0 0 0 0 0 0 0 2 1 1 0 0 0 1 4 2 0 0 0 1 0 3 2 1 7 6 2 1 1 0 0 2 0 0 0 1 1 1 1 0 0 0
0 0 0 0 0 0 0 0 1 2 2 1 0 4 4 1 0 0 0 0 0 0 0 3 2 3 7 5 4 5 1 0 2 1 0 1 0 0 0 0 1 0 0 0
0 0 0 0 0 0 0 1 0 0 0 0 1 1 0 0 0 0 0 0 0 0 0 0 0 4 7 5 3 1 1 0 0 0 1 0 0 0 0 0 0 0 0 0
0 0 0 0 0 0 0 0 0 0 0 0 0 0 0 0 0 0 0 0 0 0 0 0 0 0 3 4 3 3 1 2 0 0 1 0 0 0 0 0 1 1 0 0
0 0 0 0 0 0 0 0 0 0 0 0 0 0 0 0 0 0 0 0 0 0 0 0 0 0 1 1 5 3 2 2 3 0 3 0 0 3 0 1 1 0 0 0
0 0 0 0 0 0 0 0 0 0 0 0 0 0 0 0 1 0 3 0 0 0 0 0 0 0 1 3 4 5 4 3 1 1 0 0 0 0 1 1 1 2 1 0
0 0 0 0 0 0 0 0 0 0 0 0 0 0 0 1 1 0 0 0 0 0 0 0 0 0 0 1 3 2 2 2 0 0 0 0 0 0 0 2 1 3 3 3
0 0 0 0 0 0 0 0 0 0 0 0 0 0 0 0 0 0 0 0 0 0 0 0 0 0 0 0 1 2 0 0 3 0 2 1 0 0 0 0 1 0 1 3
0 0 0 0 0 0 0 0 0 0 0 0 0 0 0 0 0 0 0 0 0 0 0 0 0 0 0 0 0 0 0 5 2 0 0 2 0 1 1 0 0 0 0 0
0 0 0 0 0 0 0 0 0 0 0 0 0 0 0 0 0 0 0 0 0 0 0 0 0 0 0 0 0 0 0 0 0 0 0 1 0 0 0 0 0 0 0 0
0 0 0 0 0 0 0 0 0 0 0 0 0 0 0 0 0 0 0 0 0 0 0 0 0 0 0 0 0 0 0 10 3 1 0 0 0 0 0 0 0 0 0 0
0 0 0 0 0 0 0 0 0 0 0 0 0 0 0 0 0 0 0 0 0 0 0 0 0 0 0 0 0 0 0 1 11 0 2 1 0 0 0 0 1 0 0 0
0 0 0 0 0 0 0 0 0 0 0 0 0 0 0 0 0 0 0 0 0 0 0 0 0 0 0 0 0 0 0 4 4 1 1 2 0 1 4 0 0 0 0 1
0 0 0 0 0 0 0 0 0 0 0 0 0 0 0 0 0 0 0 0 0 0 0 0 5 0 0 0 8 6 0 3 1 4 6 5 1 3 0 1 0 0 0 0
0 0 0 0 0 0 0 0 0 0 0 0 0 0 0 0 0 0 0 0 0 0 0 0 0 0 0 0 34 1 6 0 0 0 6 2 0 0 0 0 0 0 0 0
0 0 0 0 0 0 0 0 0 0 0 0 0 0 0 0 0 0 0 0 0 0 1 3 0 0 0 15 0 0 0 0 0 0 2 0 0 0 0 0 0 0 0 0
0 0 0 0 0 0 0 0 0 0 0 0 0 0 0 0 0 0 0 0 0 7 2 0 0 5 17 5 0 0 0 0 0 0 0 0 0 0 0 0 0 0 0 0
0 0 0 0 0 0 0 0 0 0 0 0 0 0 0 0 0 0 0 0 0 0 0 0 8 32 26 0 0 0 0 0 0 0 0 0 0 0 0 0 0 0 0 0
0 0 0 0 0 0 0 0 0 0 0 0 0 0 0 0 0 0 0 0 3 7 0 0 8 23 9 0 0 0 0 0 0 0 0 1 0 0 0 0 0 0 0 0
0 0 0 0 0 0 0 0 0 0 0 0 0 0 0 0 0 0 0 0 2 1 0 0 11 15 0 0 0 0 0 0 0 0 0 0 0 0 0 0 0 0 0 0
0 0 0 0 0 0 0 0 0 0 0 0 0 0 0 0 0 0 0 0 0 0 0 0 0 0 0 0 0 0 0 0 0 0 0 0 0 0 0 0 0 0 0 0
0 1 0 0 0 0 0 0 0 0 0 0 0 0 0 0 0 0 0 0 0 0 0 0 0 0 0 0 0 0 0 0 0 0 0 0 0 0 0 0 0 0 0 0
CIN
0 0 0 0 0 0 0 0 0 0 0 0 0 0 0 0 0 0 0 0 0 0 0 0 0 0 0 0 0 -1 0 0 0 0 0 0 0 0 0 0 -38 0 0 0
0 0 0 0 0 0 0 0 0 0 0 0 0 0 0 0 0 0 0 0 0 0 0 0 0 0 0 0 0 0 0 0 0 0 0 0 0 0 0 0 0 0 0 0
0 0 0 -1 0 0 0 0 -1 0 -1 0 0 0 0 0 0 0 0 0 0 0 0 0 0 0 0 0 0 0 0 0 0 0 0 0 0 0 0 0 0 0 0 0
-8 0 0 0 -1 0 0 0 0 -1 0 0 0 -1 0 -1 -1 0 0 0 0 0 0 0 0 0 0 0 0 0 0 0 0 0 0 0 0 0 0 0 0 0 0 0
-1 -13 0 0 0 0 0 0 0 0 0 0 0 0 0 -1 -1 -1 -1 0 0 0 0 0 0 0 0 0 0 0 0 0 0 0 0 0 0 0 0 0 0 0 0 0
0 0 0 0 0 0 0 0 -1 0 0 0 0 0 0 0 0 0 0 -1 0 0 0 0 0 0 0 0 0 0 0 0 0 0 0 0 0 0 0 0 0 0 0 0
-1 -1 0 0 0 0 0 0 0 0 0 0 0 0 0 0 0 0 0 0 0 0 0 -1 0 0 0 0 0 0 0 0 0 0 0 0 0 0 0 0 0 0 0 0
0 0 0 0 0 0 0 0 0 0 -1 0 0 0 0 0 0 0 0 0 0 0 0 0 0 0 0 0 0 0 0 0 0 0 0 0 -1 0 0 0 0 0 0 0
0 0 0 0 0 0 0 0 0 0 0 0 -1 -1 0 0 0 0 0 0 0 0 0 0 0 0 0 0 0 0 0 0 0 0 0 -2 0 0 0 0 0 0 0 0
0 0 0 0 0 0 0 0 0 0 0 0 0 0 0 0 0 0 0 0 0 0 0 0 0 0 0 0 0 0 0 0 0 0 -1 -1 -1 -1 -1 0 0 0 0 0
0 0 0 0 0 0 0 0 0 0 0 0 0 0 0 0 0 0 0 0 0 0 0 0 0 0 0 0 0 0 0 0 0 0 -1 -2 -1 -1 -2 -4 -1 0 0 0
0 0 0 0 0 0 0 0 0 0 0 0 0 0 -1 0 0 0 0 0 0 0 0 0 0 0 0 0 0 0 0 0 0 0 0 0 -1 0 0 -1 0 0 0 0
0 0 0 0 0 0 0 0 0 0 0 0 0 0 0 0 0 0 0 0 0 0 0 0 0 0 0 0 0 0 0 0 0 0 -1 -3 0 0 0 0 0 0 -1 0
0 0 0 0 0 0 0 0 0 0 0 0 0 0 0 0 0 0 0 0 0 0 0 0 0 0 0 0 0 -1 0 0 -2 -1 0 -1 -1 -2 -2 -2 -1 0 0 0
0 0 0 0 0 0 0 0 0 0 0 0 0 0 0 0 0 0 0 0 0 0 0 0 0 0 0 0 0 0 0 0 0 -2 -2 -1 0 -3 -1 -2 0 0 0 0
0 0 0 0 0 0 0 0 0 0 0 0 0 0 0 0 0 0 0 0 0 0 0 0 0 0 0 0 0 0 0 -1 -1 -2 -3 0 0 0 0 -1 0 0 0 0
0 0 0 0 0 0 0 0 -3 0 0 0 0 0 0 0 0 0 0 0 0 0 0 0 0 0 0 0 0 0 0 -11 0 -8 -2 -2 -1 0 -1 0 0 0 0 -1
0 -3 0 0 0 0 0 0 0 0 0 0 0 0 0 0 0 0 0 0 0 0 0 0 0 -1 0 0 0 0 0 -7 -3 -4 -2 -3 -3 -1 -3 -3 -1 0 0 -10
0 0 0 0 0 0 0 0 0 0 0 0 0 0 0 0 0 0 0 0 0 0 0 0 -1 0 0 0 -3 -2 -7 -6 -4 -3 -2 -2 -4 -5 -3 -5 -1 0 0 0
0 0 0 0 0 0 0 0 0 0 0 0 0 0 0 0 0 0 0 0 0 0 0 0 0 0 0 0 0 -9 -6 -7 0 -6 -4 -2 -5 -2 -1 -1 -1 0 0 0
0 0 0 0 0 0 0 0 0 0 0 0 0 0 0 0 0 0 0 0 0 0 -3 -1 0 0 0 -1 0 -1 0 0 0 -1 -5 0 0 0 0 0 0 0 0 0
0 0 0 0 0 0 0 0 0 0 0 0 0 0 0 0 0 0 0 0 0 0 -1 0 0 0 -1 0 0 0 0 0 0 0 0 0 0 0 0 0 0 0 0 0
0 0 0 0 0 0 0 0 0 0 0 0 0 0 0 0 0 0 0 0 0 0 0 0 0 0 0 0 0 0 0 0 0 0 0 0 0 0 0 0 0 0 0 0
0 0 0 0 0 0 0 0 0 0 0 0 0 0 0 0 0 0 0 0 0 0 0 0 0 0 0 0 0 0 0 0 0 0 0 -1 0 0 0 0 0 0 0 0
0 0 0 0 0 0 0 0 0 0 0 0 0 0 0 0 0 0 0 0 0 0 0 0 0 0 0 0 0 0 0 0 0 0 0 0 0 0 0 0 0 0 0 0
0 0 0 0 0 0 0 0 0 0 0 0 0 0 0 0 0 0 0 0 0 0 0 0 0 -1 0 0 0 0 0 0 0 0 0 0 0 0 0 0 0 0 0 0
0 0 0 0 0 0 0 0 0 0 0 0 0 0 0 0 0 0 0 0 0 0 0 0 0 0 0 0 0 0 0 0 0 0 0 0 0 0 0 0 0 0 0 0
Wind_Speed
11 13 5 9 10 12 6 8 5 7 9 13 13 13 13 13 14 14 15 17 17 15 14 14 16 16 16 17 17 14 13 15 13 11 13 11 2 7 6 7 7 7 8 4
12 14 18 14 13 7 13 10 6 7 8 10 9 11 13 14 14 15 14 15 16 17 16 16 15 15 15 15 15 15 17 15 15 14 13 12 11 6 4 4 7 7 7 8
5 9 3 9 12 10 9 11 7 9 6 9 8 11 13 12 13 12 13 14 14 15 14 14 14 14 13 13 13 15 15 15 15 14 14 14 12 10 8 4 3 3 5 5
5 8 1 4 8 14 15 9 12 8 11 11 7 8 13 11 11 11 12 12 11 11 12 13 13 13 12 11 12 13 13 14 15 15 14 13 12 12 11 7 5 3 3 3
1 4 4 4 6 4 5 7 11 11 13 15 11 4 11 12 10 10 10 9 10 9 10 11 13 14 12 13 13 13 14 13 12 12 12 12 12 12 10 10 7 5 3 3
4 2 3 5 9 8 4 4 12 12 13 15 14 4 5 11 10 11 11 9 10 10 9 10 12 12 12 12 13 13 14 13 12 11 11 11 10 10 9 8 7 5 4 3
4 3 5 8 15 8 4 6 11 11 10 11 7 5 8 11 11 11 12 11 12 10 9 9 10 10 11 12 13 12 12 12 11 11 10 10 9 7 7 7 5 5 5 5
4 4 1 13 5 4 2 5 8 8 10 9 9 10 11 12 13 14 13 13 14 11 11 12 13 11 11 12 13 13 12 11 11 11 9 8 9 8 7 6 6 6 5 4
3 3 3 3 7 5 4 4 6 7 8 10 11 13 14 13 13 13 14 12 12 12 12 11 12 13 13 13 13 12 11 11 10 9 8 7 8 7 7 7 5 6 5 5
3 3 5 6 7 8 7 5 7 9 9 10 12 12 12 12 11 11 12 12 11 11 12 12 13 12 11 12 13 12 11 10 9 7 7 7 6 5 4 4 4 4 4 5
2 4 2 8 6 4 6 8 9 9 10 10 10 11 11 10 11 10 11 11 11 11 11 11 12 13 12 12 13 12 10 9 8 6 6 4 5 6 4 3 4 4 3 2
2 4 2 2 3 5 4 5 5 7 7 9 8 8 10 9 9 9 10 11 10 11 10 11 11 12 11 11 12 11 10 8 8 6 5 5 5 5 9 13 9 9 8 5
2 3 2 5 1 4 3 5 4 2 3 5 5 6 9 7 7 12 7 8 9 11 10 10 11 11 10 10 11 10 9 10 7 9 7 4 5 5 6 7 12 10 10 9
3 5 1 4 3 7 4 7 7 4 3 3 3 3 3 5 8 9 9 9 9 9 9 9 10 11 11 10 11 11 10 16 7 7 7 7 5 5 4 5 6 5 7 10
3 3 2 4 5 6 4 3 6 5 6 7 5 4 5 7 5 7 8 8 9 9 7 8 10 11 11 11 11 10 9 8 7 6 7 9 6 6 5 5 5 6 5 7
6 5 4 3 4 4 4 5 4 5 5 5 7 8 8 7 7 7 5 5 7 9 10 9 9 12 12 9 9 9 9 16 13 6 7 6 6 6 6 5 5 4 5 5
3 6 6 5 5 4 4 3 3 3 4 6 7 7 7 7 7 8 8 8 6 7 7 4 11 13 9 9 9 7 7 7 15 7 7 6 6 6 4 5 6 5 6 5
2 3 3 3 3 3 5 6 5 5 4 6 6 6 6 6 6 7 7 8 8 6 6 9 12 11 11 11 11 7 5 6 6 7 6 7 6 5 6 6 6 6 6 7
4 5 5 7 4 5 5 6 6 7 6 6 6 6 5 5 6 6 7 7 5 8 11 13 20 15 12 15 16 2 3 6 6 6 6 11 6 6 5 6 6 7 4 1
6 6 6 7 5 4 5 5 5 6 6 7 7 7 7 7 6 6 7 6 4 7 11 12 11 10 12 15 16 4 6 6 7 5 6 6 6 6 6 9 8 4 3 1
7 7 7 6 6 5 5 5 5 6 7 7 8 7 7 9 8 7 7 5 7 13 14 17 11 10 10 12 11 5 4 6 7 6 6 6 7 6 5 5 5 4 2 2
3 3 4 5 4 4 5 5 5 4 5 6 7 7 7 8 8 7 6 6 7 19 10 8 9 17 14 18 8 9 8 8 8 6 6 6 6 6 5 4 3 3 2 1
5 6 7 5 4 4 6 5 4 5 4 5 5 6 5 5 5 6 8 9 8 14 8 8 17 22 21 9 8 8 9 9 9 5 5 5 6 5 5 4 2 2 2 3
5 6 7 5 6 5 4 5 5 5 3 6 5 4 4 5 5 4 6 13 17 16 11 12 15 20 18 7 8 7 7 8 8 6 4 10 5 5 5 4 3 4 3 4
4 5 6 3 5 4 5 5 6 5 5 5 5 5 5 2 2 6 4 7 14 12 7 15 19 19 8 8 8 8 7 7 8 7 6 6 6 5 5 4 3 3 3 3
3 3 5 4 4 3 3 3 5 3 4 5 5 5 6 4 4 6 4 10 7 12 6 7 8 8 7 8 8 8 7 8 8 7 8 7 7 7 6 5 5 4 3 3
4 9 3 3 2 2 3 6 4 2 5 4 6 7 4 3 4 7 10 6 6 6 6 7 7 9 8 8 7 7 7 6 10 7 7 7 7 7 7 6 6 5 4 4
Wind_Direction
319 304 358 45 19 30 28 355 45 57 64 19 32 33 26 25 27 26 21 19 13 13 13 11 7 4 3 5 11 16 28 28 24 16 22 23 115 167 162 161 171 185 176 160
289 290 102 59 31 50 36 6 38 89 81 4 31 35 31 22 20 22 16 15 8 9 8 7 6 2 359 8 12 18 19 21 20 19 20 20 16 24 87 146 163 172 174 170
262 320 245 76 17 76 72 31 8 35 360 1 33 49 31 19 13 14 10 8 2 4 360 0 1 357 357 8 15 19 14 16 17 14 21 16 12 20 24 41 96 137 153 162
287 301 232 90 49 97 92 53 27 26 5 1 323 101 48 17 4 8 7 358 3 358 354 359 357 354 354 12 24 22 14 12 15 11 11 10 14 16 16 4 30 78 122 143
348 19 114 51 31 -0 346 54 33 14 9 0 7 120 48 9 359 6 360 352 4 351 349 357 2 350 357 16 17 14 15 13 8 9 7 6 8 8 5 360 2 15 18 53
335 301 7 5 349 331 309 91 19 18 13 2 12 51 356 348 354 356 0 2 360 354 354 12 4 355 6 17 10 10 358 3 4 6 358 3 360 2 358 353 351 351 347 11
340 78 96 348 312 318 352 7 16 13 15 6 9 357 339 349 356 1 360 10 3 359 12 19 3 0 16 10 8 355 348 351 3 3 354 358 348 349 357 354 349 360 2 5
323 46 312 336 54 53 347 4 22 2 6 354 345 351 355 360 354 3 1 6 5 360 12 17 10 14 15 14 356 350 349 352 357 357 350 349 345 340 347 353 1 1 9 10
56 151 144 35 74 54 28 9 11 1 349 349 350 355 0 353 356 356 359 5 356 355 7 12 7 13 13 4 352 347 347 340 346 349 348 345 331 335 341 351 15 4 2 353
180 117 97 76 58 40 18 7 8 4 2 356 349 353 355 353 351 355 353 359 348 356 3 3 359 6 10 357 348 344 338 335 340 346 2 350 336 334 324 340 352 349 351 352
100 29 118 84 52 36 6 14 10 348 5 359 355 350 349 343 344 347 355 350 349 353 354 354 352 354 356 355 348 344 337 329 329 332 346 352 343 329 314 288 321 327 305 307
54 21 284 60 333 19 3 360 349 338 348 347 352 342 337 338 338 334 355 343 343 342 340 344 350 348 345 347 340 336 335 330 323 334 342 352 343 329 331 332 338 332 317 314
19 328 307 290 315 9 331 316 299 357 299 317 315 327 333 327 327 351 331 326 331 330 330 333 342 337 336 334 330 333 331 321 333 340 326 336 331 321 330 330 331 333 336 336
31 323 176 33 293 309 293 300 314 293 298 277 266 297 273 308 325 330 329 320 314 319 332 343 334 324 322 328 323 335 326 327 331 323 324 325 327 312 310 315 320 320 326 320
25 348 247 263 307 308 273 299 339 330 318 331 316 310 326 325 314 302 305 312 321 338 337 329 323 321 325 321 319 336 320 315 326 325 323 329 321 322 330 318 314 307 310 314
313 286 280 282 299 330 349 341 333 322 328 311 332 328 315 309 310 312 310 316 346 333 316 315 323 314 316 313 328 322 318 319 340 326 319 318 320 323 319 317 308 299 296 290
2 357 354 354 338 341 316 295 308 320 321 335 317 315 323 328 327 332 327 325 318 305 297 310 320 312 317 322 317 306 302 312 333 321 315 312 308 306 304 312 307 300 291 284
325 293 324 322 328 342 337 341 354 349 330 316 326 329 326 326 318 319 317 316 319 330 321 323 317 328 329 323 311 295 292 316 317 316 313 309 311 326 317 310 303 306 295 289
353 340 352 338 1 338 337 346 354 337 331 340 337 328 326 327 317 311 315 321 338 342 325 322 330 340 324 320 332 292 281 320 314 307 314 322 325 315 313 302 303 306 283 264
348 351 345 338 341 355 338 347 345 337 341 338 338 343 341 333 323 327 322 318 4 332 315 320 341 324 317 316 336 325 331 322 315 316 322 338 327 320 319 324 324 317 325 36
341 342 340 341 337 346 347 343 333 337 343 345 338 339 341 329 337 329 330 332 339 320 336 343 332 323 312 328 348 331 329 333 332 331 332 327 329 326 318 320 321 331 344 17
314 307 300 295 298 314 325 316 321 334 341 334 330 333 335 333 331 332 327 342 327 328 338 338 323 321 342 2 342 344 341 339 332 330 333 330 327 326 322 313 316 328 339 40
334 335 341 347 355 318 305 306 310 309 294 296 302 302 314 311 319 331 335 324 334 315 354 334 326 342 2 355 341 340 335 331 323 319 322 319 326 323 322 323 340 16 46 56
343 335 328 350 326 308 330 326 325 312 284 297 280 272 279 307 321 313 307 327 325 334 342 329 336 348 8 343 337 336 330 329 318 315 323 351 325 327 331 342 0 21 28 48
316 304 307 351 331 341 337 333 320 312 326 315 328 309 303 279 260 307 314 318 329 337 342 334 344 351 352 340 341 341 340 337 337 350 348 344 342 336 346 356 2 34 43 55
288 287 291 294 278 274 288 305 304 310 320 325 323 312 312 306 306 321 302 332 334 335 331 331 329 341 344 342 348 346 346 345 347 351 358 355 353 357 7 12 18 22 33 53
295 315 295 298 301 317 299 286 327 298 311 308 291 298 298 299 308 331 329 327 323 326 331 331 332 334 345 352 342 345 348 350 358 6 355 359 359 2 5 8 11 15 32 49